Location: Gamarra
(10.0780°N, 67.4929°W)
Time: 07:15:19
(UTC+00:00)

ADEOS Rocket - Pass Details

Date: 13 April 2024
Orbit: 859 x 1305 km, 98.7° (Epoch: 26 May)

Event Time Altitude Azimuth Distance (km) Brightness Sun altitude
Rises 23:08:33 0° 154° (SSE) 3,706 5.7 -7.6°
Reaches altitude 10° 23:11:13 10° 148° (SSE) 2,697 4.9 -8.3°
Maximum altitude 23:16:51 45° 77° (ENE) 1,220 3.2 -9.6°
Drops below altitude 10° 23:22:06 10° 6° (N) 2,516 5.3 -10.9°
Sets 23:24:31 0° 359° (N) 3,434 6.0 -11.5°
